Change the Weather History Date:

Monday, November 28, 2011

  Actual Average Record
Temperature  
Mean Temperature 46 °F -  
Max Temperature 60 °F 40 °F 71 °F (1998)
Min Temperature 32 °F 22 °F 3 °F (2001)
Degree Days  
Heating Degree Days 19    
Moisture  
Dew Point 23 °F    
Average Humidity 47    
Maximum Humidity 65    
Minimum Humidity 23    
Precipitation  
Precipitation 0.00 in - - ()
Sea Level Pressure  
Sea Level Pressure 30.05 in    
Wind  
Wind Speed 13 mph (WNW)    
Max Wind Speed 34 mph    
Max Gust Speed 39 mph    
Visibility 10 miles    
Events      
Averages and records for this station are not official NWS values.
T = Trace of Precipitation, MM = Missing Value Source: NWS Daily Summary

Daily Weather History Graph

Daily Weather History Graph

Search for Another Location

Airport or City:

Trip Planner

Search our weather history database for the weather conditions in past years. The results will help you decide how hot, cold, wet, or windy it might be!

Date:

Astronomy

Nov. 28, 2011 Rise Set
Actual Time 7:46 AM CST 5:08 PM CST
Civil Twilight 7:15 AM CST 5:40 PM CST
Nautical Twilight 6:40 AM CST 6:15 PM CST
Astronomical Twilight 6:06 AM CST 6:48 PM CST
Moon 10:56 AM CST (11/28) 8:58 PM CST (11/28)
Length of Visible Light 10h 24m
Length of Day
9h 22m
Waxing Crescent, 16% of the Moon is Illuminated
Nov 28
Waxing Crescent
Dec 2
First Quarter
Dec 10
Full
Dec 17
Last Quarter
Dec 24
New

Hourly Weather History & Observations

Time (CST) Temp. Windchill Dew Point Humidity Pressure Visibility Wind Dir Wind Speed Gust Speed Precip Events Conditions
12:15 AM 33.8 °F 25.8 °F 17.6 °F 52% 30.03 in 10.0 mi SSW 10.4 mph - N/A   Clear
12:35 AM 33.8 °F 25.8 °F 19.4 °F 56% 30.03 in 10.0 mi SSW 10.4 mph - N/A   Clear
12:55 AM 33.8 °F 25.8 °F 19.4 °F 56% 30.02 in 10.0 mi SW 10.4 mph - N/A   Clear
1:15 AM 35.6 °F 27.5 °F 19.4 °F 52% 30.01 in 10.0 mi SSW 11.5 mph - N/A   Clear
1:35 AM 35.6 °F 28.0 °F 19.4 °F 52% 30.01 in 10.0 mi SSW 10.4 mph - N/A   Clear
1:55 AM 35.6 °F 28.0 °F 19.4 °F 52% 30.01 in 10.0 mi SSW 10.4 mph - N/A   Clear
2:15 AM 33.8 °F 25.8 °F 21.2 °F 60% 29.99 in 10.0 mi SW 10.4 mph - N/A   Clear
2:35 AM 33.8 °F 25.8 °F 21.2 °F 60% 29.98 in 10.0 mi SW 10.4 mph - N/A   Clear
2:55 AM 33.8 °F 27.0 °F 21.2 °F 60% 29.98 in 10.0 mi SW 8.1 mph - N/A   Clear
3:15 AM 32.0 °F 24.2 °F 21.2 °F 64% 29.98 in 10.0 mi SW 9.2 mph - N/A   Clear
3:35 AM 32.0 °F 26.4 °F 21.2 °F 64% 29.97 in 10.0 mi SW 5.8 mph - N/A   Clear
3:55 AM 32.0 °F 26.4 °F 21.2 °F 64% 29.97 in 10.0 mi SW 5.8 mph - N/A   Clear
4:15 AM 32.0 °F 25.6 °F 21.2 °F 64% 29.96 in 10.0 mi SSW 6.9 mph - N/A   Clear
4:35 AM 32.0 °F 25.6 °F 21.2 °F 64% 29.97 in 10.0 mi SW 6.9 mph - N/A   Clear
4:55 AM 32.0 °F 25.6 °F 21.2 °F 64% 29.96 in 10.0 mi WSW 6.9 mph - N/A   Clear
5:15 AM 32.0 °F 24.2 °F 21.2 °F 64% 29.95 in 10.0 mi SW 9.2 mph - N/A   Clear
5:35 AM 33.8 °F 27.0 °F 21.2 °F 60% 29.95 in 10.0 mi SW 8.1 mph - N/A   Clear
5:55 AM 32.0 °F 24.2 °F 21.2 °F 64% 29.95 in 10.0 mi SW 9.2 mph - N/A   Clear
6:15 AM 33.8 °F 26.4 °F 21.2 °F 60% 29.96 in 10.0 mi WSW 9.2 mph - N/A   Clear
6:35 AM 33.8 °F 28.6 °F 21.2 °F 60% 29.96 in 10.0 mi West 5.8 mph - N/A   Clear
6:55 AM 35.6 °F 29.9 °F 21.2 °F 56% 29.96 in 10.0 mi West 6.9 mph - N/A   Clear
7:15 AM 33.8 °F 26.4 °F 21.2 °F 60% 29.96 in 10.0 mi West 9.2 mph - N/A   Clear
7:35 AM 33.8 °F 26.4 °F 21.2 °F 60% 29.95 in 10.0 mi West 9.2 mph - N/A   Clear
7:55 AM 33.8 °F 27.0 °F 21.2 °F 60% 29.96 in 10.0 mi West 8.1 mph - N/A   Clear
8:15 AM 33.8 °F 27.0 °F 23.0 °F 65% 29.96 in 10.0 mi West 8.1 mph - N/A   Clear
8:35 AM 35.6 °F 28.0 °F 23.0 °F 60% 29.97 in 10.0 mi West 10.4 mph - N/A   Clear
8:55 AM 37.4 °F 30.8 °F 23.0 °F 56% 29.98 in 10.0 mi West 9.2 mph - N/A   Clear
9:15 AM 39.2 °F 33.6 °F 24.8 °F 56% 29.98 in 10.0 mi WNW 8.1 mph - N/A   Clear
9:35 AM 42.8 °F 37.0 °F 24.8 °F 49% 29.99 in 10.0 mi NW 10.4 mph - N/A   Clear
9:55 AM 46.4 °F 40.7 °F 23.0 °F 40% 30.01 in 10.0 mi NW 12.7 mph - N/A   Clear
10:15 AM 50.0 °F - 23.0 °F 35% 30.02 in 10.0 mi NW 11.5 mph 17.3 mph N/A   Clear
10:35 AM 51.8 °F - 23.0 °F 33% 30.04 in 10.0 mi NW 17.3 mph 24.2 mph N/A   Clear
10:55 AM 55.4 °F - 23.0 °F 29% 30.04 in 10.0 mi NNW 20.7 mph 26.5 mph N/A   Clear
11:15 AM 55.4 °F - 23.0 °F 29% 30.06 in 10.0 mi NNW 21.9 mph 32.2 mph N/A   Clear
11:35 AM 59.0 °F - 23.0 °F 25% 30.06 in 10.0 mi North 23.0 mph 32.2 mph N/A   Clear
11:55 AM 59.0 °F - 23.0 °F 25% 30.06 in 10.0 mi North 26.5 mph 32.2 mph N/A   Clear
12:15 PM 59.0 °F - 23.0 °F 25% 30.07 in 10.0 mi North 26.5 mph 34.5 mph N/A   Clear
12:35 PM 60.8 °F - 24.8 °F 25% 30.08 in 10.0 mi North 29.9 mph 36.8 mph N/A   Clear
12:55 PM 60.8 °F - 26.6 °F 27% 30.08 in 10.0 mi North 27.6 mph 36.8 mph N/A   Clear
1:15 PM 60.8 °F - 26.6 °F 27% 30.09 in 10.0 mi North 31.1 mph 38.0 mph N/A   Clear
1:35 PM 60.8 °F - 26.6 °F 27% 30.10 in 10.0 mi North 25.3 mph 38.0 mph N/A   Clear
1:55 PM 60.8 °F - 24.8 °F 25% 30.11 in 10.0 mi North 34.5 mph - N/A   Clear
2:15 PM 60.8 °F - 23.0 °F 23% 30.12 in 10.0 mi North 31.1 mph 39.1 mph N/A   Clear
2:35 PM 59.0 °F - 24.8 °F 27% 30.13 in 10.0 mi North 27.6 mph 33.4 mph N/A   Clear
2:55 PM 59.0 °F - 26.6 °F 29% 30.14 in 10.0 mi North 25.3 mph 35.7 mph N/A   Clear
3:15 PM 57.2 °F - 28.4 °F 33% 30.15 in 10.0 mi North 24.2 mph 32.2 mph N/A   Clear
3:35 PM 55.4 °F - 28.4 °F 36% 30.16 in 10.0 mi North 23.0 mph 31.1 mph N/A   Clear
3:55 PM 53.6 °F - 28.4 °F 38% 30.17 in 10.0 mi North 24.2 mph 34.5 mph N/A   Clear
4:15 PM 53.6 °F - 28.4 °F 38% 30.18 in 10.0 mi North 25.3 mph 29.9 mph N/A   Clear
4:35 PM 51.8 °F - 28.4 °F 41% 30.20 in 10.0 mi North 21.9 mph 26.5 mph N/A   Clear
4:55 PM 50.0 °F - 28.4 °F 43% 30.21 in 10.0 mi North 21.9 mph 26.5 mph N/A   Clear
5:15 PM 48.2 °F - 28.4 °F 46% 30.22 in 10.0 mi North 18.4 mph - N/A   Clear
5:35 PM 46.4 °F 39.8 °F 28.4 °F 50% 30.23 in 10.0 mi North 16.1 mph - N/A   Clear
5:55 PM 44.6 °F 37.8 °F 28.4 °F 53% 30.24 in 10.0 mi North 15.0 mph - N/A   Clear
6:15 PM 42.8 °F 37.5 °F 28.4 °F 57% 30.25 in 10.0 mi North 9.2 mph - N/A   Clear
6:35 PM 42.8 °F 35.1 °F 30.2 °F 61% 30.26 in 10.0 mi North 16.1 mph - N/A   Clear
6:55 PM 41.0 °F 33.5 °F 28.4 °F 61% 30.27 in 10.0 mi North 13.8 mph - N/A   Clear
7:15 PM 39.2 °F 32.5 °F 28.4 °F 65% 30.28 in 10.0 mi North 10.4 mph - N/A   Clear
7:35 PM 41.0 °F 33.1 °F 28.4 °F 61% 30.29 in 10.0 mi North 15.0 mph - N/A   Clear
7:55 PM 41.0 °F 32.5 °F 28.4 °F 61% 30.29 in 10.0 mi North 17.3 mph 26.5 mph N/A   Clear
8:15 PM 39.2 °F 30.8 °F 28.4 °F 65% 30.30 in 10.0 mi North 15.0 mph - N/A   Clear
8:35 PM 37.4 °F 28.2 °F 28.4 °F 70% 30.31 in 10.0 mi North 16.1 mph - N/A   Clear
8:55 PM 35.6 °F 26.2 °F 28.4 °F 75% 30.31 in 10.0 mi North 15.0 mph - N/A   Clear
9:15 PM 33.8 °F 25.3 °F 28.4 °F 81% 30.31 in 10.0 mi North 11.5 mph - N/A   Clear
9:35 PM 32.0 °F 23.6 °F 26.6 °F 80% 30.32 in 10.0 mi North 10.4 mph - N/A   Clear
9:55 PM 32.0 °F 23.0 °F 26.6 °F 80% 30.32 in 10.0 mi NNW 11.5 mph - N/A   Clear
10:15 PM 32.0 °F 24.8 °F 26.6 °F 80% 30.32 in 10.0 mi North 8.1 mph - N/A   Clear
10:35 PM 30.2 °F - 26.6 °F 86% 30.33 in 10.0 mi Calm Calm - N/A   Clear
10:55 PM 30.2 °F - 24.8 °F 80% 30.35 in 10.0 mi Calm Calm - N/A   Clear
11:15 PM 32.0 °F 26.4 °F 26.6 °F 80% 30.35 in 10.0 mi NNW 5.8 mph - N/A   Clear
11:35 PM 32.0 °F 27.5 °F 26.6 °F 80% 30.35 in 10.0 mi NW 4.6 mph - N/A   Clear
11:55 PM 30.2 °F 22.6 °F 24.8 °F 80% 30.36 in 10.0 mi NNW 8.1 mph - N/A   Clear